Location: Eastchurch
(51.4000°N, 0.8667°E)
Time: 00:20:58
(UTC+00:00)

IRAS Rocket - Pass Details

Date: 19 January 2026
Orbit: 846 x 875 km, 100.1° (Epoch: 9 February)

Event Time Altitude Azimuth Distance (km) Brightness Sun altitude
Rises 18:24:04 0° 152° (SSE) 3,413 7.2 -18.2°
Reaches altitude 10° 18:26:25 10° 150° (SSE) 2,485 6.4 -18.6°
Maximum altitude 18:31:54 70° 69° (ENE) 915 4.1 -19.4°
Drops below altitude 10° 18:37:27 10° 346° (NNW) 2,521 6.7 -20.3°
Sets 18:39:52 0° 344° (NNW) 3,467 7.5 -20.7°
